QPF
0.03 0.03 0.03 0.02 0.02 0.02 0.02 0.02 0.04 0.04 0.03 0.03 0.02 0.03 0.04 0.03 0.02 0.03 0.04 0.04 0.03 0.03 0.03 0.03 0.04 0.04 0.04 0.04 0.05 0.06 0.06 0.06 0.06 0.05 0.05 0.05 0.06 0.08 0.09 0.08 0.07 0.05 0.03
0.02 0.03 0.03 0.03 0.03 0.03 0.03 0.03 0.03 0.04 0.03 0.03 0.04 0.03 0.02 0.02 0.03 0.03 0.03 0.03 0.03 0.04 0.03 0.03 0.03 0.03 0.04 0.04 0.05 0.04 0.04 0.06 0.06 0.07 0.06 0.05 0.06 0.08 0.09 0.09 0.07 0.05 0.03
0.02 0.02 0.03 0.04 0.04 0.04 0.04 0.03 0.03 0.03 0.03 0.04 0.04 0.03 0.03 0.03 0.03 0.02 0.02 0.02 0.03 0.03 0.03 0.03 0.03 0.03 0.04 0.06 0.06 0.05 0.04 0.04 0.05 0.06 0.06 0.06 0.06 0.07 0.09 0.11 0.11 0.09 0.06
0.03 0.04 0.05 0.06 0.06 0.04 0.03 0.03 0.03 0.04 0.03 0.03 0.03 0.03 0.03 0.02 0.02 0.02 0.02 0.03 0.03 0.03 0.03 0.03 0.03 0.03 0.05 0.07 0.07 0.07 0.06 0.07 0.07 0.07 0.08 0.08 0.07 0.08 0.11 0.11 0.10 0.09 0.07
0.02 0.04 0.04 0.05 0.05 0.03 0.03 0.03 0.03 0.03 0.02 0.03 0.02 0.02 0.02 0.02 0.02 0.02 0.02 0.03 0.04 0.04 0.05 0.04 0.03 0.03 0.03 0.05 0.07 0.07 0.06 0.07 0.08 0.10 0.10 0.09 0.08 0.09 0.10 0.09 0.09 0.08 0.07
0.03 0.04 0.03 0.03 0.03 0.02 0.03 0.02 0.02 0.02 0.02 0.02 0.02 0.02 0.01 0.01 0.02 0.04 0.03 0.04 0.05 0.05 0.05 0.04 0.03 0.03 0.02 0.02 0.02 0.03 0.03 0.04 0.05 0.06 0.08 0.08 0.07 0.08 0.08 0.08 0.09 0.08 0.07
0.01 0.02 0.02 0.02 0.02 0.03 0.03 0.02 0.02 0.02 0.02 0.02 0.01 0.01 0.01 0.02 0.05 0.05 0.03 0.06 0.06 0.05 0.04 0.04 0.03 0.02 0.02 0.02 0.03 0.04 0.04 0.04 0.04 0.04 0.05 0.05 0.06 0.07 0.07 0.07 0.07 0.07 0.07
0.02 0.02 0.02 0.02 0.02 0.03 0.02 0.02 0.02 0.03 0.04 0.04 0.03 0.03 0.03 0.05 0.06 0.06 0.06 0.07 0.05 0.04 0.03 0.03 0.02 0.02 0.02 0.02 0.02 0.03 0.03 0.03 0.03 0.04 0.04 0.05 0.04 0.05 0.06 0.06 0.07 0.07 0.06
0.02 0.03 0.02 0.02 0.02 0.02 0.02 0.02 0.02 0.02 0.03 0.05 0.06 0.06 0.08 0.10 0.10 0.08 0.08 0.05 0.03 0.03 0.03 0.02 0.02 0.02 0.01 0.01 0.02 0.03 0.02 0.03 0.02 0.02 0.02 0.03 0.03 0.03 0.04 0.06 0.08 0.11 0.09
0.02 0.03 0.03 0.02 0.02 0.02 0.02 0.02 0.02 0.02 0.03 0.04 0.06 0.08 0.09 0.10 0.09 0.05 0.04 0.02 0.02 0.02 0.02 0.02 0.02 0.02 0.02 0.01 0.02 0.02 0.02 0.02 0.02 0.02 0.03 0.04 0.05 0.05 0.05 0.07 0.08 0.11 0.09
0.03 0.04 0.03 0.01 0.02 0.02 0.02 0.02 0.02 0.02 0.02 0.03 0.04 0.04 0.04 0.04 0.03 0.02 0.02 0.02 0.01 0.01 0.02 0.01 0.02 0.02 0.02 0.02 0.02 0.02 0.02 0.02 0.02 0.02 0.03 0.04 0.05 0.06 0.06 0.07 0.08 0.10 0.09
0.03 0.03 0.02 0.01 0.01 0.01 0.02 0.02 0.02 0.02 0.02 0.03 0.03 0.03 0.03 0.03 0.02 0.02 0.02 0.02 0.02 0.02 0.03 0.03 0.03 0.03 0.03 0.02 0.02 0.02 0.02 0.02 0.03 0.03 0.04 0.04 0.05 0.06 0.05 0.06 0.09 0.10 0.09
0.04 0.02 0.01 0.01 0.01 0.01 0.01 0.01 0.01 0.01 0.01 0.02 0.02 0.03 0.02 0.02 0.02 0.03 0.03 0.03 0.03 0.03 0.03 0.03 0.03 0.03 0.02 0.03 0.03 0.02 0.02 0.02 0.03 0.04 0.04 0.04 0.05 0.06 0.06 0.06 0.09 0.10 0.07
0.03 0.01 0.01 0.01 0.02 0.02 0.02 0.01 0.01 0.01 0.01 0.01 0.01 0.01 0.01 0.01 0.01 0.01 0.02 0.02 0.02 0.02 0.02 0.02 0.02 0.02 0.02 0.02 0.03 0.03 0.03 0.03 0.04 0.04 0.04 0.03 0.03 0.05 0.06 0.07 0.08 0.07 0.06
0.01 0.01 0.02 0.02 0.02 0.02 0.01 0.01 0.01 0.01 0.01 0.01 0.01 0.01 0.01 0.00 0.00 0.01 0.01 0.01 0.01 0.01 0.02 0.02 0.02 0.02 0.02 0.03 0.05 0.05 0.04 0.03 0.03 0.03 0.03 0.03 0.03 0.04 0.05 0.06 0.07 0.05 0.05
0.02 0.02 0.02 0.02 0.01 0.01 0.01 0.01 0.01 0.01 0.01 0.01 0.02 0.01 0.01 0.01 0.01 0.01 0.01 0.01 0.01 0.01 0.02 0.02 0.02 0.03 0.04 0.04 0.03 0.03 0.02 0.02 0.02 0.03 0.03 0.03 0.02 0.03 0.04 0.05 0.06 0.05 0.05
0.02 0.02 0.02 0.01 0.01 0.01 0.01 0.02 0.03 0.03 0.05 0.04 0.02 0.01 0.01 0.01 0.01 0.02 0.02 0.02 0.02 0.01 0.01 0.01 0.02 0.03 0.03 0.02 0.02 0.02 0.01 0.01 0.02 0.02 0.02 0.02 0.02 0.02 0.04 0.05 0.07 0.06 0.05
0.01 0.02 0.02 0.01 0.01 0.01 0.01 0.02 0.04 0.04 0.05 0.06 0.06 0.04 0.03 0.02 0.03 0.03 0.02 0.01 0.01 0.01 0.01 0.01 0.01 0.02 0.02 0.01 0.01 0.01 0.01 0.02 0.03 0.03 0.03 0.03 0.02 0.03 0.03 0.05 0.07 0.07 0.05
0.01 0.02 0.02 0.01 0.02 0.02 0.01 0.01 0.02 0.03 0.04 0.05 0.05 0.05 0.04 0.03 0.03 0.02 0.01 0.00 0.00 0.00 0.00 0.00 0.01 0.02 0.02 0.02 0.01 0.01 0.01 0.01 0.02 0.05 0.05 0.04 0.03 0.03 0.03 0.04 0.05 0.06 0.06
0.02 0.02 0.01 0.01 0.01 0.01 0.01 0.01 0.01 0.01 0.01 0.02 0.03 0.03 0.03 0.02 0.01 0.01 0.01 0.01 0.00 0.00 0.01 0.01 0.01 0.01 0.01 0.01 0.01 0.01 0.01 0.01 0.01 0.02 0.02 0.02 0.02 0.02 0.02 0.03 0.04 0.05 0.06
0.02 0.02 0.01 0.01 0.01 0.00 0.00 0.00 0.01 0.01 0.01 0.01 0.02 0.01 0.01 0.01 0.01 0.01 0.01 0.01 0.01 0.01 0.01 0.01 0.01 0.01 0.00 0.00 0.01 0.01 0.01 0.01 0.01 0.01 0.01 0.01 0.01 0.01 0.02 0.02 0.03 0.04 0.04
0.03 0.03 0.01 0.00 0.00 0.00 0.00 0.00 0.01 0.01 0.00 0.00 0.00 0.00 0.00 0.00 0.00 0.00 0.00 0.00 0.01 0.01 0.01 0.01 0.01 0.01 0.01 0.01 0.01 0.01 0.01 0.01 0.01 0.01 0.00 0.01 0.01 0.01 0.01 0.02 0.02 0.03 0.04
0.02 0.01 0.00 0.00 0.00 0.00 0.00 0.01 0.01 0.00 0.00 0.00 0.00 0.00 0.00 0.00 0.00 0.00 0.00 0.00 0.00 0.00 0.01 0.01 0.01 0.01 0.01 0.01 0.00 0.00 0.00 0.01 0.00 0.00 0.01 0.01 0.01 0.01 0.01 0.01 0.02 0.02 0.03
0.01 0.01 0.00 0.01 0.01 0.00 0.01 0.01 0.00 0.00 0.00 0.00 0.00 0.00 0.00 0.00 0.00 0.00 0.00 0.00 0.00 0.00 0.00 0.00 0.00 0.01 0.01 0.00 0.00 0.00 0.00 0.00 0.00 0.00 0.00 0.01 0.01 0.01 0.01 0.01 0.02 0.03 0.03
0.00 0.00 0.00 0.01 0.00 0.00 0.01 0.01 0.01 0.00 0.00 0.00 0.00 0.00 0.00 0.00 0.00 0.00 0.00 0.00 0.00 0.00 0.00 0.00 0.00 0.00 0.01 0.01 0.01 0.00 0.00 0.00 0.00 0.00 0.00 0.01 0.01 0.01 0.01 0.01 0.02 0.03 0.03
0.00 0.00 0.00 0.00 0.00 0.00 0.01 0.01 0.01 0.00 0.00 0.00 0.00 0.00 0.00 0.00 0.00 0.00 0.00 0.00 0.00 0.00 0.00 0.00 0.00 0.00 0.00 0.00 0.00 0.00 0.00 0.00 0.00 0.00 0.00 0.01 0.01 0.00 0.01 0.01 0.01 0.02 0.03
MSLP
1008.33 1008.73 1009.08 1009.38 1009.61 1009.78 1009.91 1010.02 1010.13 1010.25 1010.39 1010.54 1010.70 1010.83 1010.93 1010.98 1010.96 1010.89 1010.76 1010.60 1010.40 1010.17 1009.94 1009.69 1009.43 1009.17 1008.90 1008.62 1008.34 1008.06 1007.78 1007.52 1007.28 1007.07 1006.90 1006.76 1006.66 1006.58 1006.56 1006.56 1006.59 1006.65 1006.74
1009.00 1009.32 1009.60 1009.84 1010.03 1010.17 1010.27 1010.35 1010.42 1010.50 1010.60 1010.69 1010.78 1010.84 1010.86 1010.83 1010.74 1010.59 1010.38 1010.13 1009.85 1009.56 1009.27 1008.99 1008.72 1008.46 1008.20 1007.96 1007.72 1007.47 1007.23 1006.99 1006.76 1006.54 1006.34 1006.17 1006.02 1005.89 1005.79 1005.72 1005.68 1005.68 1005.70
1009.65 1009.88 1010.10 1010.29 1010.44 1010.54 1010.61 1010.66 1010.70 1010.74 1010.79 1010.83 1010.86 1010.87 1010.83 1010.73 1010.57 1010.34 1010.06 1009.74 1009.38 1009.03 1008.69 1008.37 1008.08 1007.82 1007.58 1007.36 1007.16 1006.95 1006.74 1006.52 1006.30 1006.08 1005.86 1005.65 1005.46 1005.29 1005.14 1005.02 1004.92 1004.85 1004.81
1010.22 1010.39 1010.54 1010.68 1010.78 1010.85 1010.89 1010.91 1010.92 1010.92 1010.94 1010.95 1010.95 1010.92 1010.84 1010.70 1010.50 1010.22 1009.88 1009.49 1009.08 1008.67 1008.28 1007.92 1007.61 1007.34 1007.11 1006.91 1006.72 1006.52 1006.32 1006.12 1005.89 1005.66 1005.43 1005.20 1004.98 1004.79 1004.61 1004.46 1004.32 1004.20 1004.10
1010.70 1010.80 1010.90 1010.98 1011.04 1011.06 1011.06 1011.05 1011.04 1011.02 1011.02 1011.02 1011.01 1010.97 1010.89 1010.74 1010.52 1010.22 1009.86 1009.44 1009.00 1008.55 1008.12 1007.73 1007.39 1007.10 1006.86 1006.64 1006.44 1006.24 1006.02 1005.80 1005.56 1005.30 1005.04 1004.80 1004.56 1004.36 1004.17 1004.00 1003.85 1003.70 1003.56
1011.06 1011.11 1011.16 1011.19 1011.20 1011.18 1011.14 1011.09 1011.05 1011.02 1011.02 1011.02 1011.02 1011.01 1010.95 1010.83 1010.63 1010.35 1009.99 1009.57 1009.12 1008.65 1008.20 1007.79 1007.42 1007.11 1006.83 1006.58 1006.35 1006.10 1005.84 1005.57 1005.28 1004.97 1004.68 1004.40 1004.16 1003.95 1003.77 1003.60 1003.45 1003.30 1003.13
1011.33 1011.34 1011.34 1011.32 1011.28 1011.21 1011.13 1011.06 1010.99 1010.95 1010.95 1010.97 1011.01 1011.03 1011.02 1010.94 1010.79 1010.55 1010.23 1009.83 1009.39 1008.93 1008.48 1008.06 1007.67 1007.32 1007.01 1006.71 1006.41 1006.10 1005.76 1005.41 1005.04 1004.67 1004.32 1004.00 1003.73 1003.52 1003.34 1003.20 1003.07 1002.92 1002.75
1011.53 1011.51 1011.48 1011.42 1011.33 1011.22 1011.10 1010.99 1010.91 1010.87 1010.87 1010.92 1010.98 1011.06 1011.10 1011.08 1010.98 1010.80 1010.52 1010.16 1009.76 1009.32 1008.88 1008.45 1008.05 1007.68 1007.31 1006.96 1006.59 1006.19 1005.76 1005.30 1004.82 1004.36 1003.93 1003.56 1003.26 1003.02 1002.86 1002.73 1002.63 1002.51 1002.35
1011.70 1011.67 1011.61 1011.52 1011.40 1011.26 1011.11 1010.98 1010.89 1010.84 1010.86 1010.93 1011.03 1011.14 1011.22 1011.25 1011.20 1011.06 1010.83 1010.51 1010.13 1009.72 1009.29 1008.87 1008.46 1008.06 1007.66 1007.25 1006.80 1006.32 1005.78 1005.22 1004.63 1004.06 1003.54 1003.09 1002.74 1002.48 1002.30 1002.19 1002.11 1002.02 1001.88
1011.88 1011.83 1011.76 1011.66 1011.53 1011.38 1011.22 1011.09 1011.00 1010.96 1010.99 1011.08 1011.20 1011.33 1011.44 1011.50 1011.47 1011.35 1011.14 1010.84 1010.47 1010.07 1009.65 1009.23 1008.82 1008.40 1007.97 1007.52 1007.01 1006.44 1005.82 1005.15 1004.46 1003.79 1003.17 1002.64 1002.22 1001.92 1001.72 1001.60 1001.54 1001.46 1001.35
1012.05 1012.02 1011.96 1011.86 1011.74 1011.60 1011.46 1011.34 1011.27 1011.26 1011.31 1011.41 1011.55 1011.69 1011.80 1011.85 1011.82 1011.68 1011.46 1011.14 1010.76 1010.35 1009.92 1009.50 1009.07 1008.64 1008.20 1007.71 1007.16 1006.55 1005.86 1005.12 1004.35 1003.59 1002.88 1002.28 1001.78 1001.42 1001.19 1001.05 1000.97 1000.91 1000.81
1012.23 1012.22 1012.18 1012.11 1012.02 1011.92 1011.82 1011.75 1011.72 1011.74 1011.82 1011.94 1012.09 1012.22 1012.31 1012.33 1012.25 1012.07 1011.80 1011.43 1011.01 1010.56 1010.10 1009.66 1009.22 1008.78 1008.32 1007.82 1007.26 1006.63 1005.92 1005.14 1004.32 1003.52 1002.75 1002.07 1001.51 1001.09 1000.80 1000.62 1000.51 1000.43 1000.33
1012.39 1012.40 1012.39 1012.36 1012.32 1012.28 1012.24 1012.24 1012.27 1012.35 1012.47 1012.62 1012.77 1012.89 1012.94 1012.91 1012.77 1012.52 1012.16 1011.73 1011.24 1010.72 1010.22 1009.73 1009.27 1008.82 1008.36 1007.88 1007.34 1006.72 1006.02 1005.25 1004.44 1003.61 1002.82 1002.10 1001.49 1001.01 1000.66 1000.41 1000.24 1000.12 999.98
1012.51 1012.54 1012.56 1012.58 1012.60 1012.63 1012.67 1012.74 1012.85 1013.00 1013.17 1013.35 1013.51 1013.61 1013.63 1013.54 1013.34 1013.00 1012.56 1012.04 1011.46 1010.88 1010.30 1009.77 1009.28 1008.82 1008.37 1007.91 1007.41 1006.84 1006.20 1005.48 1004.70 1003.91 1003.12 1002.40 1001.76 1001.22 1000.80 1000.47 1000.22 1000.01 999.80
1012.57 1012.62 1012.67 1012.73 1012.80 1012.90 1013.01 1013.16 1013.35 1013.56 1013.79 1014.00 1014.18 1014.28 1014.28 1014.14 1013.87 1013.47 1012.95 1012.34 1011.69 1011.03 1010.40 1009.82 1009.30 1008.83 1008.40 1007.98 1007.53 1007.03 1006.47 1005.84 1005.14 1004.40 1003.67 1002.95 1002.30 1001.72 1001.22 1000.81 1000.46 1000.14 999.82
1012.57 1012.62 1012.69 1012.78 1012.90 1013.04 1013.22 1013.44 1013.69 1013.96 1014.23 1014.48 1014.68 1014.78 1014.77 1014.62 1014.31 1013.87 1013.30 1012.64 1011.94 1011.22 1010.55 1009.94 1009.39 1008.92 1008.51 1008.12 1007.74 1007.32 1006.84 1006.31 1005.71 1005.06 1004.38 1003.71 1003.05 1002.44 1001.88 1001.37 1000.90 1000.44 999.99
1012.53 1012.57 1012.65 1012.76 1012.90 1013.08 1013.30 1013.55 1013.84 1014.15 1014.46 1014.74 1014.95 1015.07 1015.07 1014.92 1014.62 1014.16 1013.59 1012.92 1012.20 1011.48 1010.78 1010.16 1009.60 1009.14 1008.74 1008.39 1008.05 1007.70 1007.31 1006.87 1006.37 1005.80 1005.20 1004.56 1003.91 1003.27 1002.64 1002.03 1001.44 1000.84 1000.24
1012.47 1012.51 1012.58 1012.70 1012.85 1013.04 1013.27 1013.54 1013.84 1014.16 1014.48 1014.78 1015.00 1015.14 1015.16 1015.04 1014.77 1014.36 1013.82 1013.19 1012.50 1011.80 1011.13 1010.51 1009.97 1009.51 1009.12 1008.79 1008.49 1008.19 1007.86 1007.48 1007.05 1006.56 1006.00 1005.40 1004.75 1004.08 1003.39 1002.69 1001.97 1001.24 1000.49
1012.44 1012.48 1012.55 1012.66 1012.81 1012.99 1013.21 1013.47 1013.76 1014.06 1014.37 1014.66 1014.90 1015.06 1015.11 1015.03 1014.82 1014.48 1014.02 1013.47 1012.86 1012.22 1011.60 1011.02 1010.50 1010.05 1009.67 1009.35 1009.06 1008.77 1008.46 1008.12 1007.72 1007.26 1006.73 1006.14 1005.48 1004.78 1004.03 1003.24 1002.42 1001.56 1000.68
1012.47 1012.52 1012.60 1012.70 1012.84 1013.01 1013.20 1013.43 1013.68 1013.95 1014.23 1014.50 1014.73 1014.90 1014.99 1014.97 1014.84 1014.59 1014.24 1013.79 1013.28 1012.74 1012.20 1011.68 1011.20 1010.77 1010.39 1010.05 1009.74 1009.43 1009.11 1008.75 1008.34 1007.87 1007.33 1006.72 1006.04 1005.30 1004.50 1003.64 1002.74 1001.78 1000.81
1012.57 1012.64 1012.74 1012.85 1012.99 1013.14 1013.30 1013.49 1013.70 1013.92 1014.16 1014.39 1014.60 1014.78 1014.89 1014.93 1014.88 1014.74 1014.50 1014.18 1013.79 1013.37 1012.92 1012.47 1012.04 1011.63 1011.24 1010.88 1010.52 1010.16 1009.78 1009.37 1008.91 1008.39 1007.81 1007.16 1006.44 1005.65 1004.80 1003.89 1002.93 1001.93 1000.90
1012.74 1012.84 1012.97 1013.10 1013.24 1013.38 1013.52 1013.68 1013.84 1014.02 1014.21 1014.40 1014.59 1014.76 1014.89 1014.98 1015.00 1014.95 1014.83 1014.64 1014.38 1014.07 1013.72 1013.36 1012.97 1012.58 1012.18 1011.78 1011.37 1010.94 1010.48 1009.98 1009.44 1008.84 1008.19 1007.48 1006.71 1005.88 1005.00 1004.06 1003.08 1002.07 1001.03
1012.95 1013.10 1013.26 1013.42 1013.57 1013.71 1013.84 1013.97 1014.10 1014.24 1014.39 1014.55 1014.71 1014.87 1015.02 1015.13 1015.21 1015.24 1015.22 1015.14 1015.00 1014.80 1014.55 1014.26 1013.93 1013.56 1013.16 1012.72 1012.25 1011.74 1011.19 1010.60 1009.96 1009.28 1008.54 1007.77 1006.95 1006.09 1005.19 1004.26 1003.30 1002.32 1001.32
1013.17 1013.36 1013.55 1013.74 1013.90 1014.06 1014.19 1014.31 1014.43 1014.54 1014.67 1014.80 1014.94 1015.09 1015.24 1015.38 1015.50 1015.59 1015.64 1015.64 1015.60 1015.49 1015.33 1015.11 1014.83 1014.49 1014.09 1013.63 1013.11 1012.53 1011.90 1011.22 1010.50 1009.73 1008.93 1008.10 1007.24 1006.37 1005.48 1004.58 1003.67 1002.75 1001.85
1013.37 1013.58 1013.79 1013.99 1014.18 1014.35 1014.50 1014.63 1014.75 1014.86 1014.98 1015.10 1015.23 1015.38 1015.52 1015.67 1015.81 1015.94 1016.04 1016.11 1016.13 1016.10 1016.01 1015.85 1015.62 1015.31 1014.93 1014.46 1013.92 1013.30 1012.61 1011.87 1011.08 1010.26 1009.40 1008.54 1007.67 1006.80 1005.94 1005.10 1004.26 1003.45 1002.66
1013.52 1013.73 1013.94 1014.16 1014.36 1014.54 1014.72 1014.87 1015.01 1015.14 1015.26 1015.39 1015.53 1015.67 1015.82 1015.97 1016.12 1016.27 1016.40 1016.50 1016.57 1016.59 1016.55 1016.45 1016.26 1016.00 1015.64 1015.19 1014.65 1014.02 1013.31 1012.54 1011.72 1010.87 1010.00 1009.13 1008.27 1007.43 1006.62 1005.85 1005.12 1004.42 1003.76
Thickness
5674 5671 5669 5666 5663 5661 5657 5654 5651 5648 5645 5643 5641 5638 5635 5633 5631 5628 5627 5625 5622 5620 5617 5615 5612 5610 5609 5608 5607 5605 5603 5601 5600 5604 5606 5606 5603 5602 5604 5604 5605 5607 5608
5671 5668 5665 5663 5660 5656 5654 5651 5648 5645 5642 5639 5636 5634 5631 5629 5626 5624 5622 5620 5617 5614 5612 5609 5607 5605 5602 5601 5599 5598 5596 5595 5594 5595 5597 5598 5597 5597 5596 5596 5599 5602 5602
5667 5665 5662 5659 5655 5652 5650 5647 5644 5641 5637 5635 5632 5629 5626 5624 5622 5620 5618 5615 5612 5609 5607 5604 5601 5598 5596 5595 5592 5591 5590 5591 5589 5589 5590 5590 5590 5591 5589 5590 5592 5592 5595
5663 5661 5658 5655 5652 5649 5647 5644 5641 5637 5634 5631 5628 5626 5623 5620 5618 5616 5613 5610 5607 5605 5602 5599 5596 5593 5589 5587 5586 5584 5583 5582 5582 5582 5583 5583 5583 5583 5582 5581 5583 5584 5586
5660 5657 5655 5652 5650 5647 5644 5641 5637 5634 5631 5628 5625 5622 5620 5617 5613 5609 5607 5605 5602 5600 5597 5594 5591 5586 5581 5578 5577 5576 5575 5574 5574 5574 5574 5575 5575 5573 5572 5573 5573 5575 5578
5656 5654 5653 5650 5648 5644 5641 5638 5635 5631 5628 5625 5622 5619 5616 5613 5605 5601 5598 5598 5597 5594 5591 5588 5585 5581 5576 5570 5567 5565 5563 5564 5565 5564 5566 5565 5564 5564 5563 5562 5563 5564 5567
5654 5652 5651 5648 5645 5642 5639 5636 5632 5628 5625 5621 5619 5615 5612 5606 5600 5596 5592 5592 5591 5588 5585 5581 5579 5576 5570 5566 5563 5560 5558 5554 5551 5551 5554 5553 5554 5555 5552 5553 5553 5555 5556
5651 5650 5648 5646 5643 5639 5635 5631 5628 5625 5621 5618 5615 5612 5608 5602 5595 5591 5588 5588 5587 5583 5579 5575 5570 5566 5562 5556 5556 5555 5553 5551 5548 5546 5545 5544 5545 5543 5542 5543 5544 5547 5550
5649 5647 5646 5644 5640 5636 5632 5628 5625 5622 5619 5616 5613 5609 5604 5599 5591 5586 5581 5585 5582 5579 5574 5569 5563 5559 5550 5546 5547 5548 5547 5545 5543 5539 5536 5536 5534 5533 5532 5534 5537 5539 5543
5647 5645 5643 5641 5637 5633 5629 5626 5623 5619 5616 5614 5610 5606 5601 5595 5586 5581 5576 5580 5577 5574 5570 5564 5555 5549 5542 5538 5540 5540 5539 5538 5536 5537 5535 5533 5533 5532 5527 5527 5530 5531 5534
5645 5643 5640 5637 5634 5630 5626 5623 5620 5617 5614 5610 5607 5603 5598 5591 5584 5577 5572 5573 5571 5568 5564 5560 5553 5542 5537 5534 5531 5533 5529 5527 5530 5531 5532 5531 5529 5528 5526 5524 5523 5523 5524
5642 5640 5637 5634 5632 5629 5624 5621 5618 5615 5612 5608 5604 5600 5596 5589 5581 5574 5568 5563 5560 5560 5557 5553 5548 5538 5534 5530 5529 5525 5522 5522 5526 5525 5524 5523 5521 5520 5519 5518 5517 5516 5517
5639 5637 5634 5631 5628 5625 5622 5619 5616 5613 5611 5607 5603 5598 5594 5588 5580 5571 5565 5560 5555 5553 5551 5544 5539 5534 5532 5531 5525 5522 5520 5521 5520 5519 5518 5516 5514 5513 5512 5511 5512 5512 5513
5637 5634 5631 5628 5626 5622 5619 5617 5614 5611 5607 5603 5599 5595 5590 5584 5576 5570 5565 5561 5554 5551 5548 5543 5537 5533 5530 5526 5524 5522 5519 5516 5513 5512 5511 5510 5509 5507 5507 5506 5506 5507 5509
5635 5632 5630 5627 5624 5619 5615 5611 5609 5604 5599 5596 5593 5589 5583 5578 5566 5556 5554 5554 5550 5546 5542 5542 5539 5535 5531 5527 5523 5520 5515 5512 5509 5506 5504 5504 5503 5502 5501 5501 5500 5501 5503
5633 5631 5629 5626 5623 5620 5616 5611 5602 5598 5592 5588 5582 5578 5574 5565 5559 5554 5549 5545 5542 5538 5538 5538 5534 5530 5526 5522 5519 5515 5511 5507 5503 5500 5498 5496 5495 5495 5494 5494 5495 5496 5497
5631 5629 5628 5626 5623 5621 5617 5613 5608 5598 5591 5585 5580 5574 5568 5562 5557 5552 5548 5544 5540 5536 5538 5535 5530 5525 5522 5518 5514 5510 5506 5502 5498 5495 5493 5490 5489 5488 5488 5488 5489 5489 5490
5632 5628 5626 5625 5623 5620 5616 5613 5610 5605 5600 5593 5582 5573 5567 5561 5556 5551 5548 5545 5545 5540 5536 5531 5526 5522 5518 5514 5510 5506 5502 5498 5494 5490 5487 5485 5483 5483 5482 5483 5483 5483 5483
5632 5630 5627 5625 5623 5620 5617 5614 5610 5604 5599 5595 5588 5578 5568 5563 5556 5551 5548 5547 5543 5538 5532 5527 5522 5518 5514 5510 5506 5502 5497 5493 5490 5486 5484 5481 5480 5479 5479 5479 5479 5477 5478
5630 5625 5624 5624 5622 5620 5617 5613 5609 5604 5599 5594 5587 5581 5573 5569 5564 5557 5550 5545 5539 5533 5528 5523 5518 5513 5509 5505 5502 5498 5494 5490 5487 5484 5481 5479 5477 5476 5476 5476 5476 5477 5477
5632 5627 5621 5623 5621 5619 5616 5612 5608 5604 5599 5594 5587 5577 5567 5568 5563 5556 5550 5543 5536 5530 5524 5519 5514 5510 5505 5501 5498 5496 5492 5488 5484 5481 5479 5477 5475 5474 5474 5474 5474 5475 5475
5632 5629 5626 5623 5620 5617 5614 5611 5608 5604 5599 5594 5588 5581 5568 5567 5562 5555 5548 5540 5534 5527 5521 5515 5512 5507 5502 5498 5495 5492 5489 5485 5481 5478 5476 5475 5474 5473 5472 5471 5472 5472 5472
5630 5628 5625 5622 5619 5613 5612 5610 5607 5603 5598 5593 5588 5582 5575 5568 5561 5553 5546 5539 5532 5526 5520 5514 5509 5504 5499 5495 5492 5488 5485 5481 5477 5474 5473 5472 5472 5471 5470 5469 5469 5470 5470
5630 5628 5625 5622 5619 5616 5613 5610 5606 5602 5597 5592 5587 5581 5575 5567 5560 5552 5545 5539 5532 5526 5520 5514 5508 5503 5498 5494 5490 5485 5479 5474 5472 5472 5471 5470 5470 5469 5469 5469 5469 5469 5469
5630 5627 5625 5622 5619 5616 5613 5609 5606 5602 5597 5591 5586 5581 5575 5567 5560 5553 5546 5540 5533 5526 5520 5514 5509 5503 5497 5492 5486 5481 5475 5471 5469 5468 5469 5470 5469 5469 5468 5468 5468 5467 5467
5629 5626 5624 5621 5618 5615 5612 5608 5605 5601 5596 5591 5586 5581 5574 5568 5561 5555 5547 5540 5533 5527 5521 5515 5508 5503 5496 5491 5484 5478 5474 5472 5470 5468 5468 5469 5469 5468 5467 5466 5466 5466 5464